Starlink 3831

operational
NORAD ID: 52332 Int'l Des: 2022-045 Owner: SPXS Country: US Constellation: starlink
LEOCIRCULAR

Starlink 3831について

説明を読み込み中...

リアルタイム位置

3D地球を読み込み中...

次回通過

高度履歴

Altitude vs Time

uPlot chart will show altitude changes over time

軌道要素

1 52332U 22045B 25298.46354662 -.00000700 00000-0 -25890-4 0 9997
2 52332 53.2155 96.1842 0001328 85.3379 274.7765 15.08832599195224
Epoch: Oct 25, 2025 • Age: 14 hours

現在のステータス

高度 550.9 km
速度 7.59 km/s
衛星直下点 -33.25°S, 104.26°W
打ち上げ日 Apr 29, 2022
運用期間 3.4 years
タイプ internet

技術仕様

分類 Payload
質量 297.00 kg
乾燥質量 275.00 kg
総質量 297.00 kg
長さ 0.20 m
直径 2.80 m
スパン 9.00 m
形状 Box + pan
製造者 SPXS
バスタイプ Starlink
フェーズステータス In Orbit
所有者/国 SPXS/US

大規模コンステレーション

Loading constellations...